Back to catalog

STARLINK-35056

AliveCommunicationsVLEO
NORAD 66266·PAYLOAD·🇺🇸 United States

Launched Oct 31, 2025 from Vandenberg Space Force Base

Loading…

Next Passes (next 24 hours)

TLE

FreshSource: CelesTrak SupGP

Epoch: Sep 14, 2026, 14:34 UTC

1 66266C 25247B   26257.60743056 -.00084886  00000+0 -25085-2 0  2573
2 66266  53.1602  31.5759 0001215  87.0303 184.3103 15.34427270    11

Track STARLINK-35056 in real time with AllMySat

Download on the App Store